Location: Plainartige
(45.6866°N, 1.7993°E)
Time: 05:27:57
(UTC+00:00)

Vanguard 1 - Pass Details

Date: 02 June 2022
Orbit: 649 x 3833 km, 34.2° (Epoch: 06 July)

Event Time Altitude Azimuth Distance (km) Brightness Sun altitude
Rises 02:47:22 0° 265° (W) 5,545 13.5 -11.2°
Reaches altitude 10° 02:50:30 10° 261° (W) 4,891 13.2 -10.8°
Maximum altitude 03:05:16 54° 190° (S) 3,718 12.7 -9.1°
Drops below altitude 10° 03:27:11 10° 122° (ESE) 6,935 14.6 -6.3°
Sets 03:32:45 0° 118° (ESE) 7,911 15.0 -5.5°
